Temperature
22 22 21 21 21 21 21 20 20 20 20 19 19 19 19 19 19 19 18 18 18 18 18 18 18 18 18 18 18 18 18 18 18 18 18 18 18 18 18 18 18 18 17
22 22 21 21 21 21 21 20 20 20 20 20 19 19 19 19 19 19 18 18 18 18 18 18 18 18 18 18 18 18 18 18 18 18 18 18 18 18 18 18 18 18 18
22 22 22 22 21 21 21 21 21 20 20 20 19 19 19 19 19 19 18 18 18 18 18 18 18 18 18 18 18 18 18 18 18 18 18 18 18 18 18 18 18 18 18
22 22 22 22 22 22 21 21 21 20 20 20 19 19 19 19 19 19 19 19 19 19 18 18 18 18 18 18 18 18 18 18 18 18 18 18 18 17 18 18 18 18 18
23 23 23 23 22 22 22 21 21 20 20 20 20 19 19 19 19 19 19 19 19 19 18 18 18 18 18 18 18 18 18 18 18 18 18 18 18 17 17 17 18 18 18
23 23 23 23 23 22 22 22 21 21 20 20 20 20 20 19 19 19 19 19 19 19 19 18 18 19 19 18 18 18 18 18 18 18 18 18 17 17 17 17 17 17 18
23 23 23 23 23 22 22 22 21 21 21 20 20 20 20 20 19 19 19 19 19 19 19 19 19 19 19 18 18 18 18 18 18 18 18 18 18 17 17 17 17 17 17
23 23 23 23 23 23 22 22 22 21 21 21 20 20 20 20 20 20 19 19 19 19 19 19 19 19 19 18 18 18 18 18 18 18 18 18 18 18 17 17 17 17 17
23 24 24 23 23 23 23 22 22 22 21 21 20 20 20 20 20 20 19 19 19 19 19 19 19 18 18 18 18 18 18 18 18 18 18 18 18 18 17 17 17 17 16
23 23 23 23 23 23 23 22 22 22 21 21 21 20 20 20 20 20 19 19 19 19 19 19 19 18 18 18 18 18 18 18 18 18 18 18 18 18 17 17 17 17 16
23 23 23 23 23 23 23 22 22 22 21 21 21 20 20 20 20 20 19 19 19 19 19 19 19 19 18 18 18 18 18 18 18 18 18 18 18 17 17 17 17 17 16
23 23 23 23 22 22 22 22 22 22 21 21 21 20 20 20 20 20 20 19 19 19 19 19 19 19 18 18 18 18 18 18 18 18 18 17 17 17 17 17 17 17 16
23 23 23 22 23 22 22 22 22 22 22 21 21 20 20 20 20 20 20 19 19 19 19 18 18 18 18 18 18 18 18 18 18 18 17 17 17 17 17 17 17 16 16
22 22 22 22 22 22 22 22 22 22 22 21 21 21 20 20 20 20 19 19 19 19 18 18 18 18 18 18 18 18 17 17 17 17 17 17 17 17 17 17 17 16 16
22 22 22 22 22 22 22 22 22 22 21 21 21 21 20 20 20 19 19 19 19 18 18 18 18 18 18 18 17 17 17 17 17 17 17 17 17 17 16 16 16 16 16
21 22 22 22 22 22 22 22 22 21 21 21 21 20 20 20 20 20 19 19 19 18 18 18 18 18 18 18 17 17 17 17 17 17 17 17 16 16 16 16 16 16 15
21 21 22 22 22 22 22 22 22 21 21 21 20 20 20 20 19 19 19 19 18 18 18 18 18 18 17 17 17 17 17 17 17 16 16 16 16 16 16 16 16 15 15
21 21 21 22 22 22 22 21 21 21 21 20 20 20 20 19 19 19 19 18 18 18 18 18 17 17 17 17 17 17 16 16 16 16 16 16 16 16 16 16 15 15 15
21 21 21 21 21 21 21 21 20 20 20 20 20 20 19 19 19 19 19 18 18 18 18 17 17 17 17 17 16 16 16 16 16 16 16 16 16 16 15 15 15 15 15
20 21 21 21 21 21 21 20 20 20 20 20 19 19 19 19 19 18 18 18 18 18 17 17 17 17 17 16 16 16 16 16 16 16 15 15 15 15 15 14 14 14 14
20 20 20 20 20 20 20 20 19 19 19 19 19 19 19 19 18 18 18 18 17 17 17 17 16 16 16 16 16 16 15 15 15 15 15 15 15 14 14 14 14 14 14
19 19 19 19 19 19 19 19 19 19 19 19 19 18 18 18 17 17 17 17 17 17 16 16 16 16 15 15 15 15 15 15 14 14 14 14 14 14 14 13 13 13 13
19 19 19 19 19 18 18 18 19 18 18 18 18 18 17 17 17 17 16 16 16 16 16 15 15 15 15 15 14 14 14 14 14 14 13 13 13 13 13 13 13 13 12
18 18 18 18 18 18 18 18 18 18 17 17 17 17 16 16 16 16 16 16 16 15 15 15 15 14 14 14 14 14 14 14 13 13 13 13 13 12 12 12 12 12 12
17 17 17 17 17 17 17 17 17 17 17 17 16 16 16 16 16 16 15 15 15 15 15 15 15 14 14 14 14 13 13 13 13 13 12 12 12 12 12 12 12 12 11
17 17 17 16 16 16 16 17 16 16 16 16 16 15 15 15 15 15 15 15 14 14 14 14 14 14 14 13 13 13 13 13 12 12 12 12 12 11 11 11 11 11 11
Wind_Speed
8 7 7 7 6 6 6 6 6 5 5 3 3 2 1 1 1 2 3 4 4 5 4 3 3 3 3 3 3 3 3 2 2 2 1 2 1 2 2 2 3 4 5
7 7 7 7 7 8 7 6 6 6 5 4 3 2 2 1 1 1 1 3 4 5 4 4 3 3 3 3 3 3 2 1 1 2 1 2 3 2 1 1 3 3 3
12 10 9 9 8 8 9 9 7 6 5 5 3 3 2 2 1 0 1 1 2 3 3 4 3 3 3 3 3 4 3 2 1 1 2 1 1 2 2 1 2 2 2
11 11 10 10 10 10 9 8 7 6 6 6 5 5 4 3 2 2 1 1 1 2 3 4 4 4 3 3 3 4 3 3 2 1 1 1 2 1 2 2 1 2 2
12 12 12 12 11 10 9 8 7 6 6 6 7 6 4 3 2 1 1 0 0 1 2 3 3 4 3 4 3 3 4 3 3 2 2 1 1 1 1 3 3 2 2
11 11 10 9 9 8 8 8 8 7 6 6 6 6 6 5 3 2 2 1 1 0 1 2 2 3 3 3 4 4 4 4 4 3 2 2 2 2 2 3 3 3 3
10 10 11 11 11 10 10 9 9 8 7 7 7 7 6 6 5 4 3 3 1 1 1 2 2 2 3 3 3 3 4 4 4 4 3 3 3 2 2 2 2 2 2
9 10 12 12 12 12 11 10 10 9 8 7 7 6 6 5 4 4 4 4 3 3 2 2 2 2 2 3 3 3 3 3 4 4 3 2 3 3 3 2 2 2 2
10 10 10 11 11 11 12 11 11 9 8 8 6 5 6 5 5 4 4 3 3 3 3 3 2 2 2 3 3 2 3 3 3 3 3 3 2 3 3 3 3 2 3
7 7 8 9 9 10 9 9 10 9 8 8 7 7 6 6 5 4 4 4 4 3 3 3 3 2 2 3 3 2 2 2 2 2 2 2 2 2 2 3 3 3 3
7 7 7 7 8 8 9 9 8 8 7 8 7 6 5 5 5 5 5 4 4 4 4 4 4 3 3 2 3 3 3 2 2 2 2 2 2 2 2 2 2 3 3
5 6 6 6 7 8 8 9 9 9 8 7 6 6 5 5 5 5 4 4 4 4 4 4 4 4 3 3 3 4 3 3 3 2 2 2 2 2 2 2 2 3 3
4 4 5 6 7 8 8 8 9 9 8 7 7 6 6 6 6 5 4 3 3 3 3 3 4 4 3 3 3 3 3 3 3 3 3 3 2 2 2 2 2 2 2
4 4 4 5 6 7 7 8 8 8 8 7 8 7 7 6 6 5 4 4 3 3 4 4 4 3 3 3 4 3 3 3 3 3 3 3 3 4 3 3 2 2 2
4 4 5 5 5 5 6 6 6 6 7 7 7 7 6 5 5 4 4 3 3 4 4 3 3 3 3 3 3 4 4 4 3 3 3 3 4 4 4 3 3 2 2
4 4 4 4 4 5 5 5 6 7 7 7 7 6 6 5 5 5 5 4 4 3 3 4 4 3 3 3 4 4 3 3 3 3 3 3 3 3 4 4 4 4 4
3 4 4 4 4 5 5 6 7 6 7 7 6 6 6 6 6 5 5 5 4 4 4 4 4 3 3 4 4 4 3 3 3 3 3 3 2 2 2 2 2 3 4
1 2 2 3 3 4 4 5 5 6 6 6 6 6 6 6 5 5 5 5 4 4 4 4 4 3 3 4 4 4 2 2 2 3 3 3 2 2 2 1 1 2 3
1 1 2 3 2 2 3 4 4 5 5 6 6 5 6 5 5 5 5 4 4 4 4 3 4 4 3 4 4 4 2 1 2 3 2 2 3 3 2 1 1 2 3
1 0 1 2 2 2 4 5 4 4 5 5 5 5 5 6 6 6 5 4 4 4 3 3 3 4 3 4 4 3 2 1 2 2 2 1 2 2 2 2 2 3 4
1 2 2 2 1 2 4 4 4 4 5 4 4 5 5 6 5 5 4 3 3 3 3 3 2 2 3 4 4 4 3 3 2 2 1 1 1 1 1 1 2 4 3
2 2 2 1 0 2 4 3 3 4 3 3 3 4 4 4 4 4 3 3 4 4 3 2 2 1 1 2 3 4 4 4 3 2 1 1 1 1 0 0 1 2 1
1 1 2 1 1 1 3 3 3 1 2 3 3 3 3 4 4 5 5 4 3 3 3 3 3 2 1 1 2 3 3 4 2 2 2 2 2 1 1 1 1 1 1
1 1 1 1 1 1 2 3 2 2 2 2 3 3 3 3 3 3 3 4 4 4 3 4 3 3 2 2 2 2 2 2 2 1 2 2 2 1 1 1 1 1 1
1 0 0 1 2 1 1 1 2 3 3 2 2 3 3 3 2 2 1 3 3 5 5 4 4 4 4 4 4 3 2 2 2 2 1 1 1 1 1 1 1 1 1
1 0 0 1 2 1 2 1 2 3 3 2 2 3 3 2 3 2 1 2 1 2 3 4 4 3 4 5 5 4 4 4 5 3 2 1 1 1 1 1 1 1 1
Wind_Direction
208 192 186 175 165 167 168 173 170 166 150 141 148 146 186 199 207 223 218 211 197 184 173 167 155 149 152 155 143 131 123 117 112 91 15 337 290 249 241 235 234 240 238
198 191 187 179 178 179 178 179 180 173 170 166 159 153 154 177 211 235 232 211 193 188 182 170 170 164 154 147 146 136 130 122 119 123 87 351 340 336 274 243 233 244 241
200 196 192 191 186 187 188 191 188 180 176 162 133 113 87 66 70 61 268 242 203 196 188 177 170 172 167 175 177 166 158 170 166 151 148 151 264 311 317 279 258 256 248
199 194 194 193 194 196 189 187 183 180 176 164 159 157 165 182 203 200 218 250 187 184 188 183 178 181 179 183 190 183 175 169 184 180 185 185 172 197 314 319 308 285 261
198 195 196 197 198 191 184 184 176 180 178 175 175 170 175 184 173 152 174 215 173 179 182 178 177 180 184 190 190 181 181 180 182 182 173 153 138 184 214 289 314 317 282
199 196 192 189 191 183 179 179 176 185 182 179 179 179 180 177 169 181 199 224 216 188 184 178 178 184 188 197 200 195 189 191 189 186 180 173 176 197 202 243 279 296 294
194 190 185 188 190 186 185 181 179 189 188 185 189 190 186 179 184 192 197 198 198 209 232 203 192 197 199 198 194 188 194 193 191 194 199 199 207 191 190 212 257 279 292
192 192 191 190 191 189 186 181 183 192 188 190 196 193 187 185 192 194 192 197 205 216 217 200 195 200 194 194 179 185 201 194 200 208 201 206 221 202 198 199 206 277 293
191 192 188 185 185 186 186 184 184 189 191 192 191 192 192 192 196 196 193 200 206 211 205 197 200 208 198 187 172 182 201 195 204 212 207 215 229 212 211 204 197 210 267
182 179 180 181 182 184 182 180 181 190 192 190 192 202 201 198 194 191 200 205 209 203 188 193 200 202 199 189 173 189 210 198 215 213 206 221 234 228 216 210 212 211 223
182 180 178 177 170 168 172 177 179 184 191 193 193 199 198 194 190 199 208 207 209 200 197 194 192 192 194 193 182 199 206 208 228 226 211 237 235 236 240 220 212 214 209
177 172 162 158 165 174 179 181 185 189 192 189 184 192 190 187 190 200 208 205 208 205 199 186 187 195 198 196 191 206 214 210 225 228 216 246 244 236 245 231 228 224 215
149 148 151 166 175 179 181 183 187 190 189 183 183 189 190 189 195 200 200 196 196 195 193 184 193 203 201 198 200 207 221 223 225 224 222 241 237 256 261 249 244 243 235
157 157 166 179 184 179 183 186 190 187 183 181 183 189 195 196 197 195 193 195 193 193 203 197 195 200 202 206 204 200 208 219 230 232 229 234 231 238 246 251 247 245 249
162 173 181 190 189 185 188 187 190 186 180 177 184 192 194 188 181 179 185 192 193 204 202 196 196 200 202 214 202 199 205 211 224 239 241 239 237 236 238 242 237 231 245
185 186 182 185 194 194 191 184 186 188 179 184 192 188 183 183 184 187 183 184 191 195 193 198 195 201 220 215 203 196 202 210 219 238 256 260 256 250 245 238 233 223 232
185 189 195 196 201 198 188 186 188 182 179 184 187 184 182 187 193 195 186 189 193 188 196 202 195 201 216 207 201 193 192 208 226 236 247 260 270 255 265 266 267 262 245
178 204 201 203 202 185 178 173 166 171 178 183 187 188 186 191 188 185 191 196 192 192 196 198 199 200 216 200 192 182 174 192 225 236 232 236 257 259 238 249 298 294 284
206 192 199 199 190 169 163 145 153 166 174 186 188 188 185 187 185 188 198 201 192 194 196 195 191 189 205 193 183 169 167 192 231 239 233 229 245 253 214 196 258 295 302
25 91 126 130 126 156 143 139 153 168 186 198 199 186 182 187 189 194 197 199 187 188 179 178 188 188 195 186 171 163 165 207 246 268 272 244 230 241 213 209 228 267 286
36 61 82 108 163 145 134 153 169 193 201 192 192 188 188 193 190 183 183 179 175 167 167 171 172 180 193 188 182 181 191 205 214 233 272 281 199 207 228 211 243 255 265
37 64 86 75 50 127 137 157 205 220 192 170 179 187 194 200 188 173 173 170 171 172 177 173 174 171 195 198 203 191 191 189 192 212 229 228 188 186 148 72 293 289 304
18 50 107 97 36 144 156 176 233 224 161 156 170 180 192 200 184 174 176 176 174 180 190 184 193 204 201 201 194 187 182 175 180 195 185 186 173 145 72 359 349 13 18
336 355 75 85 343 279 196 199 206 166 148 163 179 174 176 183 173 170 177 182 189 190 193 193 197 202 200 206 206 196 180 160 150 163 161 155 145 103 49 18 4 349 314
296 319 231 240 260 271 254 228 176 153 157 175 186 177 175 173 158 147 169 195 206 200 196 200 195 194 207 219 204 187 183 182 180 149 126 99 62 15 350 343 333 330 332
216 218 304 289 291 282 268 248 183 165 163 176 186 184 180 174 170 157 95 43 164 176 186 188 183 198 199 181 184 182 164 152 143 126 154 192 216 240 257 275 295 296 297
Height
1506 1508 1511 1513 1515 1517 1518 1520 1522 1523 1525 1526 1527 1528 1529 1531 1532 1533 1534 1535 1536 1537 1538 1539 1540 1541 1542 1543 1544 1545 1546 1547 1547 1548 1548 1548 1549 1549 1549 1549 1549 1549 1549
1504 1506 1509 1511 1513 1515 1517 1519 1521 1523 1524 1526 1527 1529 1530 1531 1532 1533 1534 1535 1536 1537 1538 1539 1540 1541 1542 1543 1544 1545 1545 1546 1547 1548 1548 1548 1549 1548 1548 1548 1548 1548 1548
1500 1503 1506 1508 1511 1514 1516 1518 1520 1522 1524 1526 1527 1528 1530 1531 1532 1533 1534 1535 1536 1537 1537 1538 1540 1541 1542 1543 1544 1544 1545 1546 1547 1547 1548 1548 1547 1547 1547 1547 1547 1547 1546
1497 1500 1503 1506 1508 1511 1514 1517 1519 1522 1523 1525 1526 1527 1528 1530 1531 1532 1534 1535 1535 1536 1537 1538 1539 1540 1541 1542 1543 1544 1544 1545 1545 1546 1547 1547 1547 1547 1546 1546 1546 1545 1545
1493 1495 1499 1502 1506 1509 1512 1515 1518 1520 1522 1524 1525 1527 1528 1529 1531 1532 1533 1534 1535 1536 1536 1537 1538 1539 1540 1541 1542 1543 1543 1544 1544 1545 1545 1546 1546 1546 1545 1544 1544 1543 1543
1489 1492 1496 1500 1503 1507 1510 1513 1516 1518 1520 1522 1524 1525 1527 1528 1530 1531 1532 1533 1534 1535 1536 1536 1537 1538 1539 1540 1541 1541 1542 1542 1543 1544 1544 1544 1544 1544 1544 1543 1542 1541 1541
1485 1488 1492 1495 1499 1503 1507 1510 1513 1516 1518 1520 1522 1524 1525 1527 1528 1530 1531 1532 1533 1534 1534 1535 1536 1537 1537 1539 1539 1540 1540 1541 1541 1542 1542 1542 1542 1542 1542 1541 1540 1539 1538
1481 1484 1488 1491 1495 1499 1503 1507 1510 1513 1516 1518 1520 1522 1524 1526 1527 1528 1530 1530 1531 1532 1533 1534 1535 1535 1536 1537 1538 1538 1539 1539 1540 1540 1540 1540 1540 1540 1540 1539 1538 1537 1536
1478 1481 1485 1488 1492 1496 1500 1503 1506 1510 1513 1516 1518 1520 1522 1524 1525 1527 1528 1529 1529 1530 1531 1532 1533 1534 1535 1535 1536 1537 1537 1537 1537 1538 1538 1538 1538 1537 1537 1537 1536 1536 1534
1476 1479 1482 1486 1489 1493 1497 1501 1503 1507 1510 1513 1516 1518 1520 1522 1524 1525 1526 1527 1527 1528 1529 1530 1531 1532 1533 1533 1534 1534 1535 1535 1535 1535 1535 1535 1535 1535 1535 1534 1533 1533 1533
1474 1477 1480 1484 1487 1491 1495 1498 1502 1505 1508 1510 1513 1516 1518 1519 1521 1522 1523 1524 1525 1526 1526 1527 1528 1529 1530 1531 1532 1532 1533 1533 1533 1533 1533 1533 1533 1532 1532 1531 1531 1530 1530
1473 1476 1479 1483 1486 1489 1493 1496 1499 1502 1505 1508 1510 1513 1515 1517 1518 1520 1521 1522 1522 1523 1524 1524 1525 1526 1527 1528 1529 1529 1530 1530 1530 1530 1530 1530 1530 1529 1529 1529 1528 1527 1527
1473 1476 1479 1481 1484 1487 1490 1494 1496 1499 1503 1505 1508 1510 1512 1513 1515 1517 1518 1519 1520 1520 1521 1522 1522 1523 1524 1525 1526 1526 1527 1527 1527 1527 1527 1527 1527 1526 1526 1525 1525 1524 1524
1472 1475 1477 1480 1482 1485 1488 1491 1494 1497 1500 1502 1504 1506 1509 1511 1512 1514 1515 1517 1517 1518 1519 1519 1520 1520 1521 1522 1523 1523 1524 1524 1524 1524 1524 1524 1523 1523 1523 1522 1522 1521 1520
1472 1474 1476 1479 1481 1483 1486 1489 1491 1494 1497 1499 1501 1503 1506 1508 1509 1511 1512 1514 1514 1515 1517 1517 1517 1518 1519 1519 1520 1521 1521 1521 1521 1521 1521 1520 1520 1519 1519 1519 1518 1518 1517
1471 1473 1475 1477 1479 1481 1484 1486 1489 1492 1494 1496 1499 1501 1503 1505 1506 1507 1508 1510 1511 1512 1513 1514 1514 1515 1516 1516 1517 1518 1518 1517 1517 1517 1517 1517 1516 1516 1516 1515 1515 1514 1513
1471 1472 1474 1476 1478 1479 1481 1483 1486 1489 1491 1494 1496 1498 1499 1501 1503 1504 1505 1505 1507 1509 1510 1511 1511 1512 1512 1513 1514 1514 1514 1514 1514 1514 1513 1513 1513 1513 1512 1511 1511 1510 1510
1471 1472 1473 1475 1476 1478 1480 1482 1484 1486 1489 1491 1493 1494 1496 1498 1500 1501 1502 1503 1504 1505 1506 1507 1508 1508 1509 1509 1510 1510 1510 1510 1510 1510 1509 1509 1509 1509 1508 1507 1506 1506 1505
1470 1471 1472 1474 1475 1476 1478 1479 1481 1483 1486 1487 1489 1491 1493 1495 1496 1497 1499 1500 1500 1501 1502 1503 1504 1504 1505 1506 1506 1506 1506 1506 1506 1505 1505 1505 1505 1504 1504 1503 1502 1501 1501
1470 1470 1471 1472 1474 1475 1476 1477 1479 1480 1482 1484 1487 1488 1490 1491 1492 1493 1495 1496 1497 1497 1498 1499 1500 1501 1501 1502 1502 1503 1502 1502 1502 1501 1501 1501 1501 1500 1500 1499 1498 1497 1497
1469 1469 1470 1471 1472 1473 1474 1475 1476 1477 1479 1481 1483 1485 1486 1487 1488 1490 1491 1492 1493 1493 1494 1495 1496 1497 1498 1498 1498 1499 1498 1497 1497 1497 1496 1496 1497 1496 1496 1496 1495 1494 1493
1467 1468 1468 1469 1470 1471 1472 1473 1474 1475 1476 1477 1479 1480 1482 1484 1484 1485 1487 1488 1489 1489 1490 1490 1491 1492 1494 1494 1494 1494 1494 1494 1493 1492 1492 1492 1492 1492 1492 1492 1491 1491 1490
1466 1466 1467 1468 1469 1470 1470 1470 1472 1473 1473 1474 1475 1476 1478 1479 1480 1481 1483 1484 1484 1485 1485 1486 1487 1487 1489 1489 1489 1490 1489 1489 1489 1488 1488 1488 1488 1488 1488 1488 1488 1487 1486
1464 1465 1465 1465 1466 1467 1468 1468 1469 1470 1470 1471 1472 1473 1475 1476 1477 1477 1479 1479 1480 1480 1481 1482 1482 1483 1484 1484 1485 1485 1485 1485 1484 1484 1484 1484 1484 1485 1484 1484 1484 1483 1482
1463 1463 1464 1464 1464 1465 1465 1466 1467 1468 1468 1468 1469 1470 1471 1472 1473 1474 1475 1476 1477 1477 1478 1478 1479 1479 1479 1480 1480 1480 1480 1480 1480 1480 1481 1481 1481 1480 1480 1480 1479 1479 1479
1461 1461 1462 1462 1462 1463 1463 1464 1464 1465 1465 1466 1466 1467 1468 1469 1470 1470 1471 1472 1473 1474 1474 1474 1475 1475 1476 1476 1477 1477 1477 1477 1478 1477 1477 1477 1477 1477 1476 1476 1475 1475 1475